This is the latest recevied weather packets stored in our database for station/object W2GRK-15. If no packets are shown the sender has not sent any weather packets the latest 10 day(s).
| Time | Temp. | Humidity | Pressure | Rain* | Wind** | Luminosity | Snow |
|---|---|---|---|---|---|---|---|
| 1777407798 | 16.11° C | 49% | 1019.6 hPa | 0 mm | - | 89 W/m² | - |
| 1777407379 | 16.11° C | 50% | 1019.7 hPa | 0 mm | - | 107 W/m² | - |
| 1777407331 | 16.11° C | 50% | 1019.6 hPa | 0 mm | - | 115 W/m² | - |
| 1777407089 | 16.67° C | 49% | 1019.6 hPa | 0 mm | - | 136 W/m² | - |
| 1777406848 | 16.67° C | 49% | 1019.8 hPa | 0 mm | - | 156 W/m² | - |
| 1777406606 | 16.67° C | 49% | 1019.8 hPa | 0 mm | - | 188 W/m² | - |
| 1777405946 | 16.67° C | 49% | 1019.8 hPa | 0 mm | - | 199 W/m² | - |
| 1777405704 | 16.67° C | 48% | 1019.7 hPa | 0 mm | - | 215 W/m² | - |
| 1777405576 | 17.22° C | 48% | 1019.8 hPa | 0 mm | - | 230 W/m² | - |
| 1777405398 | 17.22° C | 49% | 1019.9 hPa | 0 mm | - | 236 W/m² | - |
| 1777405221 | 17.22° C | 48% | 1019.8 hPa | 0 mm | - | 259 W/m² | - |
| 1777405128 | 16.67° C | 49% | 1020 hPa | 0 mm | - | 274 W/m² | - |
| 1777404738 | 17.22° C | 48% | 1020.1 hPa | 0 mm | - | 273 W/m² | - |
| 1777404625 | 16.67° C | 49% | 1020.1 hPa | 0 mm | - | 260 W/m² | - |
| 1777404319 | 17.22° C | 50% | 1020.3 hPa | 0 mm | - | 239 W/m² | - |
| 1777404207 | 17.22° C | 49% | 1020.3 hPa | 0 mm | - | 227 W/m² | - |
| 1777404029 | 17.22° C | 48% | 1020.1 hPa | 0 mm | - | 218 W/m² | - |
| 1777403965 | 17.22° C | 49% | 1020.5 hPa | 0 mm | - | 217 W/m² | - |
| 1777403611 | 17.22° C | 49% | 1020.3 hPa | 0 mm | - | 210 W/m² | - |
| 1777403240 | 17.22° C | 49% | 1020.4 hPa | 0 mm | - | 189 W/m² | - |
| 1777403128 | 17.22° C | 50% | 1020.4 hPa | 0 mm | - | 206 W/m² | - |
| 1777402951 | 17.22° C | 49% | 1020.6 hPa | 0 mm | - | 240 W/m² | - |
| 1777402840 | 17.22° C | 49% | 1020.5 hPa | 0 mm | - | 251 W/m² | - |
| 1777402395 | 17.22° C | 49% | 1020.7 hPa | 0 mm | - | 248 W/m² | - |
| 1777402190 | 17.22° C | 50% | 1020.9 hPa | 0 mm | - | 278 W/m² | - |
* Rain latest hour (hover to see other rain measurements)
** Current wind speed in m/s (hover to see current wind gust speed)